Weather History for Reidsville, NC

Change the Weather History Date:

Thursday, February 7, 2013

  Actual Average (KGSO) Record (KGSO)
Temperature  
Mean Temperature 35 °F 41 °F  
Max Temperature 42 °F 51 °F 72 °F (1925)
Min Temperature 28 °F 31 °F 9 °F (1978)
Degree Days  
Heating Degree Days 30 24  
Month to date heating degree days 172  
Since 1 July heating degree days 2395  
Cooling Degree Days 0 0  
Month to date cooling degree days 0  
Year to date cooling degree days 0  
Moisture  
Dew Point 32 °F    
Average Humidity 82    
Maximum Humidity 97    
Minimum Humidity 64    
Precipitation  
Precipitation 0.37 in 0.09 in 1.24 in (1965)
Month to date precipitation 0.69  
Year to date precipitation 3.75  
Snow  
Snow 0.00 in 0.10 in 8.00 in (1936)
Month to date snowfall 0.7  
Since 1 July snowfall 5.0  
Snow Depth -    
Sea Level Pressure  
Sea Level Pressure 30.25 in    
Wind  
Wind Speed 3 mph (NE)    
Max Wind Speed 7 mph    
Max Gust Speed -    
Visibility 8 miles    
Events Rain    
T = Trace of Precipitation, MM = Missing Value Source: NWS Daily Summary

Daily Weather History Graph

Daily Weather History Graph

Search for Another Location

Airport:

Trip Planner

Search our weather history database for the weather conditions in past years. The results will help you decide how hot, cold, wet, or windy it might be!

Date:

Astronomy

Feb. 07, 2013 Rise Set
Actual Time 7:15 AM EST 5:52 PM EST
Civil Twilight 6:48 AM EST 6:19 PM EST
Nautical Twilight 6:18 AM EST 6:49 PM EST
Astronomical Twilight 5:47 AM EST 7:19 PM EST
Moon 4:50 AM EST (2/7) 3:17 PM EST (2/7)
Length of Visible Light 11h 30m
Length of Day
10h 36m
Waning Crescent, 9% of the Moon is Illuminated
Feb 7
Waning Crescent
Feb 10
New
Feb 17
First Quarter
Feb 25
Full
Mar 4
Last Quarter

Hourly Weather History & Observations

Time (EST) Temp. Windchill Dew Point Humidity Pressure Visibility Wind Dir Wind Speed Gust Speed Precip Events Conditions
12:15 AM 31.3 °F - 27.1 °F 85% 30.27 in 10.0 mi Calm Calm - N/A   Clear
12:35 AM 30.6 °F - 27.0 °F 86% 30.26 in 10.0 mi Calm Calm - N/A   Clear
12:55 AM 31.5 °F - 26.4 °F 82% 30.27 in 10.0 mi Calm Calm - N/A   Clear
1:15 AM 29.3 °F - 25.7 °F 86% 30.27 in 10.0 mi Calm Calm - N/A   Clear
1:35 AM 28.4 °F - 26.1 °F 91% 30.27 in 10.0 mi Calm Calm - N/A   Clear
1:55 AM 28.8 °F - 26.2 °F 90% 30.28 in 10.0 mi Calm Calm - N/A   Clear
2:15 AM 29.5 °F 24.5 °F 26.4 °F 88% 30.28 in 10.0 mi NNE 4.6 mph - N/A   Clear
2:35 AM 34.7 °F 31.8 °F 25.9 °F 70% 30.28 in 10.0 mi NE 3.5 mph - N/A   Clear
2:55 AM 35.8 °F 31.9 °F 26.6 °F 69% 30.30 in 10.0 mi NNE 4.6 mph - N/A   Clear
3:15 AM 35.6 °F 32.8 °F 27.9 °F 73% 30.30 in 10.0 mi NNE 3.5 mph - N/A   Clear
3:35 AM 35.4 °F 31.5 °F 28.6 °F 76% 30.30 in 10.0 mi NNE 4.6 mph - N/A   Clear
3:55 AM 35.4 °F 31.5 °F 29.3 °F 78% 30.30 in 10.0 mi NE 4.6 mph - N/A   Clear
4:15 AM 35.4 °F 30.5 °F 30.2 °F 81% 30.31 in 10.0 mi NNE 5.8 mph - N/A   Mostly Cloudy
4:35 AM 36.0 °F 31.1 °F 31.1 °F 82% 30.31 in 10.0 mi NE 5.8 mph - N/A   Overcast
4:55 AM 36.1 °F 33.5 °F 31.3 °F 83% 30.31 in 10.0 mi NNE 3.5 mph - N/A   Overcast
5:15 AM 36.0 °F 32.1 °F 31.5 °F 84% 30.33 in 10.0 mi NNE 4.6 mph - N/A   Overcast
5:35 AM 36.0 °F 32.1 °F 31.6 °F 84% 30.34 in 10.0 mi NNE 4.6 mph - N/A   Overcast
5:55 AM 36.1 °F 32.3 °F 31.5 °F 83% 30.34 in 10.0 mi NNE 4.6 mph - N/A   Overcast
6:15 AM 36.3 °F - 30.9 °F 81% 30.35 in 10.0 mi Calm Calm - N/A   Overcast
6:35 AM 36.0 °F 32.1 °F 30.0 °F 79% 30.35 in 10.0 mi NE 4.6 mph - N/A   Overcast
6:55 AM 35.8 °F 33.0 °F 29.7 °F 78% 30.35 in 10.0 mi NE 3.5 mph - N/A   Overcast
7:15 AM 35.8 °F 31.9 °F 29.3 °F 77% 30.35 in 10.0 mi NE 4.6 mph - N/A   Overcast
7:35 AM 35.8 °F 33.0 °F 29.7 °F 78% 30.34 in 10.0 mi NNE 3.5 mph - N/A   Overcast
7:55 AM 36.0 °F 32.1 °F 29.8 °F 78% 30.35 in 10.0 mi NE 4.6 mph - N/A   Overcast
8:15 AM 36.0 °F 31.1 °F 30.2 °F 80% 30.35 in 10.0 mi NE 5.8 mph - N/A   Overcast
8:35 AM 36.3 °F 30.8 °F 30.4 °F 79% 30.34 in 10.0 mi NNE 6.9 mph - N/A   Overcast
8:55 AM 36.5 °F 32.7 °F 30.9 °F 80% 30.35 in 10.0 mi NE 4.6 mph - N/A   Overcast
9:15 AM 36.7 °F 32.9 °F 30.7 °F 79% 30.36 in 7.0 mi NE 4.6 mph - N/A   Overcast
9:35 AM 37.4 °F 32.8 °F 31.1 °F 78% 30.36 in 10.0 mi NE 5.8 mph - N/A   Overcast
9:55 AM 37.6 °F 33.1 °F 30.6 °F 76% 30.35 in 10.0 mi NE 5.8 mph - N/A   Overcast
10:15 AM 38.3 °F 34.8 °F 30.7 °F 74% 30.34 in 10.0 mi NE 4.6 mph - N/A   Overcast
10:35 AM 38.7 °F 36.3 °F 30.7 °F 73% 30.34 in 10.0 mi NE 3.5 mph - N/A   Overcast
10:55 AM 39.9 °F 37.8 °F 30.9 °F 70% 30.33 in 10.0 mi NE 3.5 mph - N/A   Mostly Cloudy
11:15 AM 39.6 °F 35.4 °F 30.4 °F 70% 30.32 in 10.0 mi NE 5.8 mph - N/A   Scattered Clouds
11:35 AM 40.1 °F 36.9 °F 30.4 °F 68% 30.31 in 10.0 mi NNE 4.6 mph - N/A   Scattered Clouds
11:55 AM 40.6 °F 37.5 °F 30.4 °F 67% 30.31 in 10.0 mi NE 4.6 mph - N/A   Scattered Clouds
12:15 PM 40.8 °F 38.8 °F 30.4 °F 66% 30.30 in 10.0 mi NE 3.5 mph - N/A   Mostly Cloudy
12:35 PM 41.2 °F 39.2 °F 30.4 °F 65% 30.29 in 10.0 mi East 3.5 mph - N/A   Scattered Clouds
12:55 PM 42.3 °F 37.9 °F 30.9 °F 64% 30.27 in 10.0 mi ENE 6.9 mph - N/A   Scattered Clouds
1:15 PM 42.1 °F 38.4 °F 30.9 °F 65% 30.26 in 10.0 mi NE 5.8 mph - N/A   Mostly Cloudy
1:35 PM 42.1 °F 40.2 °F 31.1 °F 65% 30.25 in 10.0 mi NE 3.5 mph - N/A   Overcast
1:55 PM 41.9 °F 40.0 °F 31.1 °F 66% 30.24 in 10.0 mi NE 3.5 mph - N/A   Overcast
2:15 PM 42.1 °F 40.2 °F 31.3 °F 66% 30.23 in 10.0 mi NE 3.5 mph - N/A   Overcast
2:35 PM 42.3 °F 40.5 °F 31.1 °F 65% 30.23 in 10.0 mi NE 3.5 mph - N/A   Overcast
2:55 PM 42.3 °F 38.6 °F 31.1 °F 65% 30.23 in 10.0 mi NE 5.8 mph - N/A   Overcast
3:15 PM 41.9 °F 40.0 °F 32.0 °F 68% 30.23 in 10.0 mi NNE 3.5 mph - N/A Rain Rain
3:35 PM 41.0 °F 39.0 °F 33.1 °F 73% 30.22 in 10.0 mi NE 3.5 mph - N/A Rain Light Rain
3:55 PM 40.3 °F - 34.7 °F 80% 30.22 in 7.0 mi Calm Calm - N/A Rain Light Rain
4:15 PM 39.7 °F - 36.1 °F 87% 30.21 in 5.0 mi Calm Calm - N/A Rain Rain
4:35 PM 39.2 °F - 36.5 °F 90% 30.21 in 5.0 mi Calm Calm - 0.01 in Rain Light Rain
4:55 PM 38.7 °F - 36.3 °F 91% 30.21 in 5.0 mi Calm Calm - 0.02 in Rain Light Rain
5:15 PM 38.3 °F 35.9 °F 36.5 °F 93% 30.20 in 3.0 mi NNE 3.5 mph - 0.01 in Rain Light Rain
5:35 PM 38.1 °F 35.7 °F 36.0 °F 92% 30.20 in 5.0 mi NNE 3.5 mph - 0.01 in Rain Light Rain
5:55 PM 37.8 °F 34.2 °F 36.0 °F 93% 30.19 in 5.0 mi NNE 4.6 mph - 0.02 in Rain Light Rain
6:35 PM 37.4 °F 34.9 °F 35.6 °F 93% 30.19 in 5.0 mi NNE 3.5 mph - N/A Rain Light Rain
6:55 PM 37.4 °F 34.9 °F 35.8 °F 94% 30.18 in 5.0 mi NNE 3.5 mph - N/A Rain Light Rain
7:15 PM 37.0 °F 34.5 °F 35.6 °F 95% 30.17 in 4.0 mi NNE 3.5 mph - 0.01 in Rain Light Rain
7:35 PM 36.9 °F 33.1 °F 35.6 °F 95% 30.16 in 4.0 mi North 4.6 mph - 0.01 in Rain Light Rain
7:55 PM 36.7 °F 32.9 °F 35.2 °F 95% 30.16 in 4.0 mi NNE 4.6 mph - 0.02 in Rain Rain
8:15 PM 36.5 °F 32.7 °F 35.2 °F 95% 30.15 in 4.0 mi NNE 4.6 mph - 0.01 in Rain Light Rain
8:35 PM 36.5 °F 31.8 °F 35.1 °F 95% 30.15 in 3.0 mi NNE 5.8 mph - 0.02 in Rain Rain
8:55 PM 36.5 °F 32.7 °F 35.1 °F 95% 30.14 in 3.0 mi NE 4.6 mph - 0.03 in Rain Rain
9:15 PM 36.1 °F 32.3 °F 34.9 °F 95% 30.13 in 3.0 mi NNE 4.6 mph - 0.01 in Rain Rain
9:35 PM 36.1 °F 31.4 °F 35.1 °F 96% 30.12 in 2.5 mi NNE 5.8 mph - 0.03 in Rain Rain
9:55 PM 36.0 °F 33.3 °F 35.1 °F 97% 30.11 in 2.5 mi NE 3.5 mph - 0.06 in Rain Rain
10:15 PM 36.0 °F 31.1 °F 35.1 °F 97% 30.11 in 2.0 mi NNE 5.8 mph - 0.03 in   Overcast
10:35 PM 36.1 °F 33.5 °F 35.2 °F 97% 30.10 in 2.0 mi NNE 3.5 mph - 0.09 in   Overcast
10:55 PM 36.0 °F 30.3 °F 35.2 °F 97% 30.09 in 2.0 mi NNE 6.9 mph - 0.13 in Rain Light Rain
11:15 PM 35.8 °F 30.9 °F 35.1 °F 97% 30.08 in 2.5 mi NNE 5.8 mph - 0.03 in Rain Rain
11:35 PM 35.6 °F 31.7 °F 34.7 °F 97% 30.08 in 2.5 mi NNE 4.6 mph - 0.06 in Rain Rain
11:55 PM 35.4 °F 30.5 °F 34.7 °F 97% 30.07 in 2.5 mi NNE 5.8 mph - 0.09 in Rain Rain